Theta_e
327 328 329 339 340 341 342 344 345 346 346 347 348 348 348 348 348 349 348 349 348 348 348 349 349 349 349 349 349 349 349 348 349 349 349 349 349 349 349 348 349 349 349 350 349 349 350 350 351 351 350 350 351 351 350 350 350 350 350 350 350 350 350 350 350 350 350 350 350 351 351 351 352 350 351 355 355 354 353 352 352 348 348 351 354
326 327 328 332 338 340 340 341 342 343 345 345 346 347 347 347 347 347 347 347 347 347 348 348 348 349 349 348 348 348 348 348 348 347 349 348 348 348 348 348 347 347 348 348 348 348 349 350 350 350 349 351 350 349 349 349 348 349 349 349 350 350 350 350 350 349 349 349 349 349 348 350 351 351 351 355 355 354 353 352 352 347 344 353 354
326 327 327 331 337 337 338 339 340 340 342 343 344 344 345 345 346 346 346 346 347 347 347 347 348 347 346 346 348 347 347 347 347 347 347 348 348 348 348 347 347 347 347 348 348 347 347 346 349 348 350 350 349 349 349 348 347 348 348 349 349 349 349 349 348 349 348 348 348 346 345 346 347 349 353 355 354 354 353 352 351 351 346 354 354
325 325 326 330 337 337 336 337 338 339 339 341 342 342 343 344 344 345 345 345 346 346 346 346 347 347 347 347 347 347 347 348 348 348 348 346 346 345 346 347 347 348 347 346 348 347 348 348 347 348 348 348 348 348 348 347 347 347 348 348 348 349 349 348 347 345 345 345 345 344 343 340 341 351 355 355 354 355 352 352 351 353 353 354 354
325 324 325 325 326 334 335 336 336 337 338 339 340 340 340 342 342 344 343 344 345 345 345 345 345 345 346 346 345 345 346 345 346 346 345 344 344 344 344 344 345 347 347 348 347 348 346 347 347 347 347 346 346 347 347 347 347 347 348 348 348 346 345 344 343 342 341 341 342 342 339 341 339 354 355 355 355 353 352 351 352 353 353 353 354
323 323 324 323 324 328 335 334 335 336 337 336 337 337 339 340 341 341 341 342 342 342 342 343 343 343 344 343 343 343 343 343 343 343 343 342 341 341 342 342 343 344 346 348 348 347 347 346 346 345 343 342 342 343 345 346 346 346 346 346 345 343 341 340 339 340 341 339 340 339 339 337 338 349 354 354 353 353 353 353 353 352 353 353 353
322 322 323 322 323 328 334 334 334 335 335 335 335 336 338 339 339 339 339 339 339 339 340 341 341 341 340 340 341 341 341 340 340 340 340 340 339 339 339 340 341 342 343 345 346 346 345 347 345 344 342 339 339 339 339 340 341 342 342 342 340 339 336 334 334 337 339 337 336 338 339 339 338 338 351 350 352 353 351 349 348 350 351 352 351
321 322 322 321 323 331 334 333 333 334 334 334 334 335 336 338 337 337 337 336 337 337 338 339 339 338 338 338 339 339 339 338 338 338 337 338 337 337 336 337 338 339 340 342 343 343 343 343 342 341 340 337 336 336 336 336 336 337 337 336 335 333 330 330 333 335 337 334 335 336 337 339 339 340 350 350 349 349 349 348 347 348 348 349 349
319 320 321 320 323 332 333 332 333 333 333 333 334 334 335 336 336 336 336 335 335 335 335 336 336 336 335 335 336 335 335 336 336 335 335 334 333 333 333 333 333 334 335 337 338 339 339 339 338 338 336 334 333 332 332 332 333 333 333 332 331 330 328 328 330 331 332 332 333 334 336 339 338 338 346 350 348 349 350 350 350 349 349 349 348
318 318 318 318 320 331 331 332 333 332 333 333 333 334 334 334 334 334 334 333 333 333 333 333 333 334 333 333 333 333 333 333 332 331 331 330 330 330 330 329 329 329 330 331 332 333 333 333 332 331 331 330 328 328 328 327 327 328 329 330 329 328 325 325 326 325 324 328 331 332 335 343 339 338 346 349 349 350 350 345 346 346 347 349 348
316 317 316 317 320 330 331 331 331 331 331 331 332 332 332 332 332 332 332 332 332 332 332 332 332 331 330 330 329 330 330 329 329 328 328 328 328 327 327 327 327 328 327 328 329 329 329 328 328 327 327 326 325 325 325 324 325 325 325 325 325 325 324 321 322 316 318 323 328 330 334 340 337 336 348 347 347 348 350 346 345 347 350 350 350
314 314 314 317 326 329 329 329 329 329 329 330 331 331 331 330 329 330 331 331 331 331 331 330 329 328 327 328 328 328 328 328 327 327 326 327 327 327 327 327 326 326 326 326 326 326 326 326 325 325 324 324 324 324 324 324 324 324 325 324 323 322 322 320 315 313 315 320 323 328 329 333 335 338 346 345 345 347 350 349 350 348 348 349 349
312 313 313 313 317 327 327 328 328 328 329 329 329 330 329 329 328 328 328 328 328 328 328 327 327 327 326 326 325 326 326 326 326 326 325 325 325 324 324 324 324 324 324 324 324 324 325 325 324 323 323 323 322 323 323 324 323 323 322 323 322 322 321 319 312 311 314 317 320 323 326 329 332 340 345 345 346 347 347 347 347 348 348 349 349
311 311 311 312 315 324 326 327 327 328 328 327 327 327 328 328 327 327 326 326 325 326 326 326 325 325 325 324 324 324 324 324 324 324 324 323 322 322 322 322 323 323 322 322 322 322 323 323 322 322 322 322 322 322 322 322 321 321 320 320 320 320 319 317 315 309 310 312 318 321 324 329 332 341 344 343 344 344 345 347 346 346 347 347 347
309 309 309 311 313 315 323 325 326 326 326 326 326 326 327 327 326 325 324 324 323 324 324 324 324 323 323 322 322 321 321 321 321 321 322 321 320 320 320 320 320 320 320 320 319 319 320 321 321 320 321 320 321 321 321 321 320 319 319 318 318 317 317 312 311 308 307 310 312 319 322 327 336 344 343 343 343 342 345 345 345 345 346 346 347
308 308 309 308 310 312 314 321 323 323 324 324 324 324 325 325 324 324 323 323 323 322 322 322 321 321 321 321 320 319 318 317 317 318 319 319 319 318 318 318 319 319 319 319 319 319 319 320 320 319 319 319 319 319 320 317 317 317 316 315 316 317 317 316 309 307 305 306 311 320 324 330 340 341 343 345 346 345 344 344 344 344 344 345 346
307 307 306 306 307 308 310 311 317 320 321 321 321 322 322 322 323 322 321 321 321 321 320 319 319 319 318 318 317 317 315 314 314 314 316 317 318 317 316 317 318 318 319 319 319 319 320 319 318 319 317 317 317 318 316 316 316 315 314 315 315 317 316 315 308 307 306 311 317 317 319 329 333 336 341 343 344 345 344 344 344 343 343 343 344
305 304 304 305 304 306 308 310 310 310 311 316 318 319 319 320 320 320 320 319 319 318 318 317 316 315 314 314 314 314 314 314 313 313 313 315 315 315 315 316 317 318 318 317 317 318 317 316 317 316 314 314 314 315 314 315 314 314 313 314 315 315 314 312 303 304 305 311 307 312 312 326 325 329 333 338 340 341 341 342 342 343 343 343 343
302 302 303 303 303 304 306 306 306 305 305 306 307 313 317 317 317 317 317 316 316 315 315 315 314 314 313 311 311 311 310 311 311 310 310 311 312 312 313 313 315 316 315 314 315 316 315 314 314 314 312 312 312 312 312 312 312 312 312 312 313 311 308 305 302 303 305 304 307 308 309 321 322 326 328 330 331 333 334 334 335 336 338 340 342
300 301 301 301 301 301 302 303 303 303 303 303 305 307 314 315 314 315 314 314 313 313 312 311 311 311 311 311 309 306 307 307 308 307 307 308 309 309 311 310 312 313 312 312 313 313 313 312 312 312 311 310 309 309 309 310 310 310 310 311 310 307 301 301 301 302 303 304 309 305 316 318 321 323 325 326 326 327 328 329 330 331 334 336 337
300 299 299 300 300 299 301 302 302 302 301 302 302 304 308 313 312 313 312 312 311 310 309 309 308 308 308 309 306 300 299 299 300 302 308 302 307 311 309 308 310 309 309 310 311 311 311 311 310 309 309 308 306 307 307 308 309 308 309 310 306 300 300 301 301 302 302 302 306 304 316 316 319 321 322 323 323 324 324 325 326 327 329 331 333
298 297 298 299 300 300 301 301 302 301 300 301 302 303 306 306 302 303 303 307 309 309 304 301 308 300 308 304 301 300 298 297 299 307 303 306 305 309 308 306 308 307 306 308 309 309 309 309 309 307 306 306 304 297 299 303 306 308 308 307 299 299 300 300 300 300 301 300 305 308 313 314 316 319 320 321 321 322 323 323 325 326 327 327 329
296 297 297 298 299 300 300 301 301 300 299 299 301 301 301 299 299 300 302 305 305 302 301 301 298 298 299 299 300 299 297 298 299 301 302 308 305 307 305 304 305 305 304 304 305 306 306 307 307 305 304 303 295 294 295 295 296 303 302 299 297 298 299 299 299 299 300 302 302 310 312 314 316 317 319 320 321 322 322 323 324 325 326 326 327
297 297 297 299 299 299 300 300 301 300 300 299 299 299 299 299 299 299 300 300 300 300 298 298 298 298 298 298 298 299 298 298 308 307 303 296 298 305 304 304 303 304 303 299 301 303 303 303 304 303 299 296 293 293 294 294 294 294 295 296 297 298 298 298 298 298 299 302 302 310 310 312 314 316 318 320 320 320 320 321 321 323 324 325 326
297 297 297 298 298 299 299 300 301 301 300 300 299 298 299 299 297 297 298 298 298 298 298 298 297 297 298 299 298 298 297 296 296 295 294 295 293 293 293 294 293 293 300 292 292 293 294 292 293 295 292 293 293 292 293 293 293 294 294 295 295 296 297 297 298 298 298 298 300 309 310 310 312 314 316 317 318 319 319 320 321 322 323 324 325
297 296 297 298 298 299 299 300 300 300 300 300 299 299 300 298 297 298 298 298 298 297 298 298 298 297 297 297 299 297 296 295 294 294 294 293 293 293 292 292 291 291 294 291 291 291 291 290 292 292 291 292 292 292 292 294 292 292 293 293 294 295 295 295 296 296 297 298 299 308 309 309 310 313 314 316 317 318 319 320 320 321 322 323 324
296 297 297 297 298 299 298 299 299 299 299 299 298 299 298 298 297 298 297 297 297 297 296 296 297 296 295 297 296 295 294 293 293 293 293 292 292 292 291 291 290 290 292 290 290 290 290 290 290 291 291 291 291 291 291 292 292 292 292 292 293 294 294 294 294 294 296 296 299 305 307 307 309 311 313 314 316 317 318 319 320 321 321 322 323
296 296 296 297 298 298 298 298 298 299 298 298 298 298 297 297 297 300 298 298 297 296 296 295 296 294 295 296 296 294 293 292 293 292 292 292 292 291 291 290 290 289 291 291 290 289 289 289 290 290 291 291 291 291 291 292 291 291 291 292 292 292 292 292 293 293 294 294 296 300 305 306 306 308 311 313 315 316 317 318 320 321 321 322 322
295 296 296 296 297 298 298 298 298 298 298 297 296 297 297 297 298 297 296 301 296 296 296 296 294 294 295 295 295 293 292 292 292 292 291 291 291 291 290 290 289 289 290 289 290 289 289 289 290 290 289 290 290 290 291 291 290 291 291 291 291 291 291 291 291 291 291 292 293 296 302 304 305 306 308 311 313 314 316 317 319 320 320 320 321
296 296 296 296 297 298 297 298 298 298 298 296 295 296 296 296 296 296 296 299 295 295 296 294 293 294 293 293 294 293 292 291 291 290 290 290 290 290 290 289 288 289 289 289 290 289 289 289 289 289 290 289 289 290 291 290 290 290 290 290 290 290 291 291 291 291 291 292 292 293 299 302 303 305 306 308 311 312 314 315 317 318 319 319 320
297 296 296 296 297 297 297 297 298 299 297 296 295 296 296 295 296 295 296 295 295 295 295 294 293 293 293 293 293 294 292 291 291 290 290 289 290 290 290 289 287 288 288 288 290 290 289 289 289 289 289 289 289 289 289 289 289 289 289 289 290 290 290 290 291 291 291 291 291 292 294 299 301 303 305 307 308 310 312 313 314 315 316 317 318
296 296 296 296 296 297 297 297 297 298 297 295 296 295 295 295 295 294 294 294 295 294 293 293 293 293 293 292 292 292 293 291 291 291 290 289 289 289 289 288 287 288 288 288 289 289 289 289 289 290 289 289 289 288 289 288 287 288 288 288 289 289 289 290 290 290 290 290 290 291 292 294 299 302 304 306 307 309 310 310 311 312 314 315 317
297 297 296 296 296 296 297 296 297 297 297 295 295 295 295 295 295 293 293 295 294 293 293 293 293 293 293 292 292 293 293 292 290 291 292 289 289 289 288 288 288 287 288 289 289 288 287 287 288 289 288 289 288 288 289 288 287 287 287 288 288 288 289 289 289 289 289 289 290 290 291 293 293 299 302 304 306 307 308 309 310 311 313 314 315
296 296 295 295 296 297 297 296 296 296 296 295 295 295 295 295 294 293 295 294 293 293 293 292 293 293 292 292 291 292 291 291 290 289 289 288 289 288 287 287 287 288 288 288 287 287 287 287 288 287 290 288 286 286 286 286 286 286 286 287 287 287 287 288 288 288 289 289 289 290 291 291 292 293 295 302 305 306 307 308 308 310 311 311 312
296 295 295 295 296 296 297 296 297 296 296 295 295 294 295 295 294 294 294 293 292 292 292 292 292 292 292 291 291 292 291 291 290 289 288 288 288 287 287 287 287 287 286 287 286 286 286 286 287 287 286 285 285 287 286 285 285 285 286 287 286 287 287 287 288 288 288 289 289 290 291 291 292 293 295 294 298 302 305 307 308 308 309 309 310
296 296 296 295 295 295 296 295 295 295 294 295 294 294 295 294 294 295 293 293 292 292 292 292 292 292 292 291 291 291 290 290 289 289 288 287 287 287 287 287 287 287 286 287 287 286 286 287 287 286 284 284 286 285 285 284 285 285 286 286 287 288 287 287 287 287 288 288 289 290 291 291 292 292 296 294 295 297 303 306 307 308 308 308 308
297 296 295 294 294 294 295 294 294 294 293 294 293 293 294 293 293 293 293 292 292 291 291 292 291 291 291 290 290 291 290 289 289 289 288 287 287 287 286 287 288 286 286 285 285 287 286 288 285 287 285 284 284 284 284 284 284 285 286 286 286 287 286 286 286 287 289 288 288 289 290 291 293 297 294 294 295 295 299 304 306 307 308 309 306
297 296 296 294 294 294 294 294 294 294 293 294 293 293 293 293 292 292 293 291 291 291 291 291 291 291 291 290 290 291 290 289 289 288 287 287 287 287 287 287 287 285 285 285 285 285 285 285 284 285 285 284 283 283 283 284 285 285 285 285 285 285 286 286 286 289 287 287 288 289 290 291 292 293 293 294 294 295 295 299 303 305 306 306 306
298 296 295 294 293 293 293 294 293 293 293 293 293 292 292 291 290 291 291 290 290 290 291 290 290 291 290 290 290 290 290 289 288 288 287 288 286 286 286 286 286 285 285 285 284 286 285 284 283 283 285 284 283 284 284 284 284 284 284 285 285 285 286 286 286 285 285 286 288 291 293 292 293 293 294 294 294 294 295 295 294 294 295 302 305
297 295 295 293 293 292 292 293 293 293 293 293 292 291 291 290 290 289 289 290 290 290 290 290 290 290 291 290 290 290 289 289 288 288 287 287 286 286 286 286 286 285 284 284 283 283 283 283 283 284 284 284 285 284 283 283 283 283 284 285 285 284 284 285 284 285 286 286 287 289 290 292 291 291 290 289 289 289 292 292 292 292 293 297 303
295 294 294 293 293 292 292 292 293 292 293 292 291 291 290 289 289 289 290 290 290 290 289 289 289 289 291 290 290 289 289 289 288 287 286 287 286 285 285 285 285 285 284 284 284 283 284 284 284 285 284 282 282 282 283 283 282 281 282 282 282 283 285 285 284 285 286 287 287 285 285 285 285 285 285 287 288 289 290 291 291 291 292 292 295
293 293 293 292 292 292 292 292 292 292 292 293 292 291 291 291 290 290 289 290 289 289 289 289 289 290 290 290 289 289 289 288 288 287 287 286 285 285 285 285 285 284 285 284 283 287 284 283 283 281 282 282 281 282 284 282 279 279 279 280 281 281 283 284 283 284 284 285 285 284 284 284 285 286 287 287 287 287 288 289 289 290 291 292 292
293 293 293 292 292 292 292 292 292 292 292 292 292 291 291 290 290 289 289 288 289 289 289 289 289 289 289 289 289 288 288 287 287 287 286 286 285 285 285 284 284 285 283 283 283 282 282 282 282 282 281 281 282 284 282 283 279 280 280 279 277 278 282 281 282 284 284 284 284 283 285 285 286 286 285 285 285 286 287 288 289 290 290 291 291
292 292 292 292 292 292 292 292 292 292 292 292 292 291 291 289 288 289 288 288 287 288 288 288 288 288 288 289 288 288 288 287 287 287 286 286 285 285 284 284 284 284 283 282 282 281 282 282 282 283 281 279 279 279 283 282 280 280 276 277 276 277 276 276 279 282 283 283 283 284 284 285 285 284 285 285 286 286 287 288 289 289 289 290 290
292 292 292 292 293 292 292 292 292 292 292 292 292 290 290 288 288 288 288 287 287 286 286 285 287 288 288 287 288 288 288 287 287 286 286 285 285 284 284 284 283 283 283 282 281 282 282 282 282 282 280 280 279 279 280 282 281 282 280 277 275 275 275 276 279 280 281 282 283 283 284 284 283 284 284 285 286 286 286 287 287 288 288 289 289
292 293 293 293 293 292 292 292 292 292 291 291 291 290 290 289 287 287 285 285 285 285 285 286 286 287 287 288 287 288 287 287 286 286 286 285 284 284 283 283 283 283 283 282 282 281 281 281 281 281 280 281 280 279 278 281 283 282 282 280 280 275 275 278 278 275 281 282 282 282 282 282 282 284 284 284 284 285 286 287 287 288 288 288 288
292 292 292 292 292 292 292 292 291 291 291 291 291 290 289 289 288 288 287 287 286 286 287 287 287 287 287 287 287 287 287 287 286 285 285 285 284 284 284 283 283 282 283 282 281 281 281 281 282 281 281 283 280 278 278 278 279 279 281 281 281 282 280 278 275 277 274 278 278 280 281 282 282 283 283 283 284 285 285 285 285 285 285 286 287
292 291 291 292 291 292 291 291 291 291 291 291 290 290 289 289 288 288 288 287 287 286 287 287 287 287 286 287 286 286 286 286 286 285 285 285 284 283 283 283 282 282 283 281 281 281 282 282 282 281 281 281 280 279 278 278 278 277 281 280 279 280 279 278 278 277 276 274 275 279 279 281 282 281 282 283 283 283 283 283 284 284 284 285 286
291 291 291 291 292 291 291 291 291 290 290 290 290 290 290 289 289 288 287 288 287 287 287 287 287 287 286 286 286 285 285 285 285 285 284 284 284 283 283 282 282 282 283 282 281 281 281 280 280 280 279 280 280 280 279 278 277 277 278 277 277 277 277 277 278 277 275 274 275 275 276 278 280 281 282 282 282 282 283 283 283 284 285 285 284
291 291 290 290 290 290 290 290 290 290 290 290 290 290 290 289 288 288 287 286 286 285 285 286 285 286 285 285 285 285 285 284 284 284 283 283 283 283 282 282 281 281 282 281 280 280 280 280 280 279 279 279 279 280 279 278 279 278 278 278 277 276 276 276 276 275 276 276 274 275 276 276 275 277 280 281 281 281 282 283 282 283 283 283 283
289 289 289 289 289 290 290 290 290 290 290 289 290 289 289 289 288 288 287 286 285 285 285 285 285 285 284 284 284 285 284 284 283 283 283 283 282 282 281 281 281 282 282 280 280 280 280 280 280 279 280 279 279 279 280 280 279 279 278 278 277 277 276 276 275 276 275 274 275 275 276 277 276 276 278 280 281 281 282 282 282 282 282 283 283
Wind_Speed
0 2 1 2 8 9 8 9 10 11 11 12 13 14 14 14 13 13 13 12 11 11 11 11 12 11 11 11 11 11 12 12 12 12 12 12 11 11 10 9 8 6 7 7 6 6 7 8 8 9 10 10 11 11 12 12 12 12 12 11 11 11 11 11 11 10 10 11 12 12 12 11 10 7 5 3 3 4 3 3 3 2 3 4 6
3 1 1 1 7 9 9 9 9 9 10 10 12 12 13 14 14 13 12 12 12 11 12 12 12 11 12 12 12 12 12 13 13 13 13 13 13 13 12 10 10 9 9 9 9 9 9 10 10 10 10 11 11 11 12 12 12 12 12 12 11 11 11 12 11 10 9 10 11 12 11 11 10 7 4 2 2 3 2 3 3 2 2 3 4
4 3 1 2 7 8 9 9 9 8 8 9 10 10 11 12 13 12 12 12 12 12 12 12 12 12 12 11 14 13 14 13 13 14 14 14 14 14 13 13 12 11 10 11 11 11 12 10 13 12 13 12 12 12 12 11 12 12 12 12 12 12 12 11 12 11 11 10 11 12 10 8 8 6 2 3 2 4 3 3 3 2 3 5 4
6 3 2 3 4 6 8 9 10 9 8 8 8 8 9 10 11 11 11 11 12 11 12 13 13 12 12 13 14 13 13 14 14 14 14 14 14 13 13 13 13 12 12 12 12 12 12 12 13 14 14 14 13 13 12 11 11 11 12 13 13 13 13 13 12 11 11 12 11 11 4 4 6 3 4 5 4 5 4 3 2 2 3 5 5
6 3 2 3 2 5 8 9 9 9 8 9 8 7 7 8 9 10 10 11 11 11 11 10 12 12 12 12 12 12 13 12 13 13 13 13 13 13 13 12 12 13 12 12 13 15 13 14 14 16 16 15 15 15 14 13 13 12 13 13 14 14 14 13 13 12 11 11 11 8 3 4 3 2 5 6 6 5 4 3 3 3 3 3 5
6 3 3 3 2 3 8 9 9 8 8 8 8 7 8 8 9 9 10 10 10 10 10 11 10 11 11 11 11 11 12 12 12 12 13 13 13 13 13 12 12 12 13 15 14 14 14 14 16 15 15 14 14 14 15 15 14 13 13 13 14 14 14 14 14 13 11 11 10 6 6 4 3 1 5 5 6 6 3 2 4 6 5 6 5
8 4 4 3 1 3 7 9 9 9 9 9 9 9 9 9 9 9 8 8 8 8 8 9 10 10 10 10 12 12 12 12 11 12 13 14 13 13 13 12 12 12 13 14 15 14 14 16 15 14 14 14 14 13 13 12 12 12 12 12 12 12 13 13 13 13 11 8 5 6 5 4 1 0 2 2 5 5 4 5 5 6 8 8 8
6 5 4 2 1 4 8 10 10 9 9 9 9 10 10 10 10 9 9 8 9 8 8 9 10 10 10 11 12 12 13 12 12 13 13 14 13 13 14 13 14 13 13 13 14 15 15 15 15 14 14 13 13 12 11 11 10 10 10 10 10 10 11 11 12 12 11 5 5 5 5 3 4 4 7 3 2 4 4 4 4 5 6 7 7
7 5 4 3 3 7 8 10 10 10 10 10 10 11 11 11 11 11 11 10 9 9 9 10 10 10 11 12 12 12 12 13 14 14 14 14 13 13 14 14 14 14 13 13 14 14 14 14 13 13 13 12 12 11 10 10 9 9 9 9 10 11 12 12 11 10 6 5 5 5 5 5 4 4 7 10 1 2 5 4 4 5 6 5 5
6 5 4 3 3 8 10 10 11 11 11 10 11 11 11 11 11 12 12 11 10 10 10 10 10 11 13 13 13 13 13 13 14 14 14 14 14 14 14 14 14 14 14 13 13 13 13 13 12 12 12 12 11 11 10 10 9 9 8 8 9 9 11 12 12 7 5 5 6 5 5 8 4 3 5 7 5 3 4 3 2 2 3 5 4
7 5 4 3 4 9 11 11 11 11 11 11 11 11 12 12 12 12 12 11 11 11 11 11 12 13 13 13 13 13 13 14 14 14 14 14 14 14 14 14 14 15 14 14 14 14 14 13 13 13 13 13 12 11 11 11 10 10 10 10 9 9 9 11 9 5 6 6 5 5 5 9 4 3 4 7 8 3 2 1 2 1 4 6 7
7 5 4 3 6 10 11 11 11 11 11 11 11 11 12 12 12 12 13 13 13 13 13 13 13 13 13 13 13 14 14 14 14 14 14 14 14 14 14 15 14 15 15 14 14 14 14 14 14 14 13 13 13 12 12 11 11 11 12 12 11 11 10 11 6 6 6 6 6 5 6 5 5 4 7 9 8 4 2 2 4 6 7 7 7
8 6 4 3 4 9 11 12 12 11 12 11 12 12 12 12 12 12 12 13 13 13 13 13 14 14 14 14 14 14 14 14 14 14 14 14 14 14 14 14 15 15 15 15 15 14 14 14 14 14 14 14 13 13 13 13 13 13 13 12 13 13 12 11 5 6 6 6 6 7 6 5 5 9 10 6 3 2 2 3 5 6 7 8 8
9 7 5 4 4 8 10 11 12 12 12 12 12 12 12 12 12 13 13 13 13 13 13 14 14 14 14 14 14 14 13 14 14 14 14 14 14 14 14 14 14 14 14 14 14 14 14 14 14 14 14 14 13 13 13 13 13 14 14 15 15 14 14 8 6 4 5 6 6 8 7 6 5 8 6 5 6 6 3 3 4 6 7 8 9
10 8 6 5 4 5 10 11 12 13 13 13 12 12 13 13 13 13 13 13 13 13 13 14 14 14 14 14 14 14 14 13 14 13 13 13 13 14 13 13 13 14 14 14 14 13 14 14 15 15 14 14 14 13 13 13 13 14 14 15 15 15 15 6 5 4 5 5 5 7 7 6 9 11 7 7 8 6 2 3 4 6 7 8 8
10 9 7 5 5 4 4 8 11 11 12 12 12 12 12 12 13 13 13 13 14 14 14 14 14 14 14 14 14 14 14 14 13 13 13 13 13 14 13 14 13 13 14 14 14 14 14 15 15 15 15 15 15 14 13 14 14 14 15 15 15 14 14 9 5 4 5 5 5 4 6 4 12 14 13 11 10 9 7 6 6 6 7 7 8
9 9 8 6 6 4 4 4 6 10 10 10 11 11 12 12 12 13 13 13 14 14 14 14 14 14 14 14 14 14 14 14 14 14 13 13 14 14 14 15 15 15 15 16 16 15 16 16 16 15 15 16 15 15 14 15 15 15 16 17 17 15 11 9 6 5 5 5 4 5 5 5 11 13 12 11 10 10 9 9 9 9 8 8 8
8 9 9 8 6 5 5 5 5 5 5 7 10 12 12 12 13 13 13 13 13 13 13 14 14 14 14 13 13 13 13 13 14 15 15 14 14 15 16 16 15 15 15 15 16 15 15 16 16 16 17 17 16 16 16 15 15 16 16 18 17 15 12 9 6 6 7 6 6 5 5 9 15 13 13 13 12 12 13 13 13 13 12 11 10
8 8 8 8 8 7 6 5 5 5 6 5 4 6 11 12 13 13 13 13 13 13 13 13 13 12 13 13 13 12 12 13 13 15 15 14 13 13 14 15 14 13 13 13 14 13 13 14 14 15 16 16 17 17 17 16 16 16 17 17 14 12 12 8 7 7 7 7 7 7 7 15 15 14 13 13 13 13 12 12 13 13 14 14 14
6 8 9 8 8 8 7 7 6 6 5 5 5 5 8 10 12 12 13 13 13 13 12 12 10 10 11 11 11 8 8 6 10 7 11 11 9 7 11 12 12 12 13 13 13 13 13 14 14 15 15 15 15 15 15 15 15 16 16 16 13 13 8 6 6 7 6 7 6 6 10 16 15 14 14 14 14 14 14 14 13 13 13 14 14
5 7 8 9 9 10 9 7 7 7 7 6 5 5 5 9 8 11 12 12 12 12 12 9 7 7 7 8 8 6 5 4 4 4 5 3 3 4 10 11 12 13 13 13 14 14 14 15 15 16 16 16 15 12 11 13 13 14 13 12 10 7 7 7 8 6 6 6 7 7 15 16 16 15 15 15 15 15 15 15 15 14 14 14 14
8 7 7 8 10 9 10 9 8 9 8 7 5 5 4 5 4 4 5 6 7 7 5 4 4 2 6 5 4 4 4 3 2 4 2 1 1 6 9 12 12 13 14 14 14 14 15 15 15 16 16 16 14 7 7 8 11 12 10 9 6 5 5 6 7 7 7 7 6 8 17 16 15 15 15 15 14 14 14 14 14 14 14 14 13
8 8 8 10 9 9 8 9 9 10 9 7 6 6 6 5 5 5 4 6 5 4 4 4 4 4 5 6 6 5 4 3 3 3 3 4 5 9 10 11 12 13 13 14 14 15 15 15 15 15 15 13 7 7 7 7 7 10 9 7 6 6 5 5 5 6 6 6 6 12 16 16 16 15 15 15 14 15 15 14 14 14 14 14 14
11 11 11 7 9 9 10 9 10 11 10 8 7 7 6 6 5 5 6 5 5 5 4 4 4 5 6 6 6 4 4 3 4 7 6 4 5 6 9 9 10 10 11 8 10 12 13 12 13 13 8 6 6 7 7 6 7 7 7 7 7 7 7 6 6 6 6 5 5 12 15 16 16 16 15 15 15 15 16 16 15 15 15 15 15
10 8 6 9 10 10 9 9 10 10 10 9 9 8 7 6 5 5 5 6 6 5 5 4 4 5 5 6 5 5 4 4 4 5 5 5 4 4 4 4 4 5 6 6 6 6 6 6 5 6 6 6 7 7 6 6 6 6 6 7 7 7 6 6 6 6 7 6 6 11 14 16 16 16 15 16 16 16 16 16 16 16 15 15 15
6 9 12 10 11 11 10 9 10 9 10 9 9 9 9 8 7 7 6 6 6 6 6 5 5 5 5 4 5 6 5 4 4 4 4 4 4 4 4 5 4 4 4 6 6 5 5 5 5 6 6 5 6 6 5 6 6 6 6 6 6 6 6 6 6 7 7 7 7 13 16 17 17 16 16 16 16 16 16 16 17 16 16 16 15
11 13 11 10 10 10 9 10 10 9 10 8 8 8 8 8 8 8 8 8 7 7 6 6 6 4 4 4 6 6 6 5 5 4 4 3 4 3 4 5 5 5 4 6 5 5 5 5 5 5 5 5 5 5 5 5 4 5 5 5 5 6 6 6 6 6 6 7 8 14 15 18 18 18 18 17 17 17 17 16 16 16 16 16 16
9 10 11 11 11 13 11 11 10 10 9 9 9 9 8 8 8 8 8 8 8 7 7 6 6 6 4 5 6 7 6 6 5 5 4 3 4 4 5 5 5 5 5 6 5 5 4 4 4 4 5 5 5 5 5 5 6 4 5 5 5 5 5 5 4 5 6 6 6 9 14 16 18 18 18 18 18 17 18 17 17 17 16 16 16
12 12 11 12 13 12 12 13 11 11 10 10 9 8 8 8 8 8 8 8 7 7 7 7 6 6 4 4 6 7 6 6 6 5 4 4 4 4 5 5 5 4 5 5 4 3 3 3 3 3 4 5 5 6 5 6 5 5 6 6 6 6 6 6 5 5 4 5 5 6 12 15 17 18 18 18 18 17 17 17 17 16 16 16 16
16 13 12 12 11 12 14 14 13 12 11 10 9 9 8 9 8 8 8 7 7 8 7 7 6 6 5 4 6 6 6 6 6 4 6 4 4 4 5 5 5 4 5 3 1 1 1 2 3 3 4 5 5 5 5 6 6 6 6 6 7 6 6 6 7 6 6 5 5 6 10 13 15 18 18 17 17 17 17 17 17 16 16 16 16
11 13 13 12 12 13 13 13 12 11 9 10 9 10 8 9 9 8 8 8 8 8 7 7 6 6 6 5 5 6 6 5 6 5 5 5 4 4 5 5 5 4 3 2 0 1 2 3 3 4 5 5 5 5 5 6 6 6 6 6 7 6 7 6 6 6 7 6 6 6 6 10 13 15 17 17 16 16 16 16 16 16 16 16 16
14 15 13 10 12 15 14 13 13 12 11 10 9 10 9 10 9 8 8 7 8 7 7 7 7 6 5 6 6 6 6 5 6 5 6 5 5 6 5 5 3 3 2 2 2 2 3 2 3 3 3 3 4 5 5 6 6 6 6 7 6 7 7 7 7 7 7 6 6 7 6 7 9 13 14 15 16 15 15 15 16 17 17 17 17
11 13 12 13 15 14 14 13 13 12 13 12 10 9 9 8 9 8 7 8 8 7 8 8 7 7 6 6 7 6 5 6 6 6 6 6 5 5 5 4 3 3 2 2 2 2 3 3 3 3 4 3 4 5 4 5 5 6 6 6 6 7 7 7 7 7 7 6 6 6 6 6 6 8 10 11 13 14 15 15 16 16 16 16 17
10 9 11 15 13 10 10 10 12 14 13 10 9 9 9 8 7 7 7 8 7 7 7 7 7 7 7 6 7 7 6 6 6 5 6 6 5 6 5 4 3 3 2 2 2 1 3 3 3 4 4 4 5 5 5 6 5 5 6 6 6 6 7 7 7 6 6 6 5 6 6 6 6 6 6 8 9 11 14 15 15 15 15 15 16
8 9 16 16 13 12 11 10 12 13 12 11 10 10 8 9 8 8 8 8 7 8 7 7 7 7 7 7 7 7 7 6 5 7 6 6 6 6 5 5 3 3 2 1 2 2 3 3 3 5 3 4 3 4 4 5 6 7 7 6 7 7 6 7 7 6 6 6 5 6 6 6 6 6 6 6 6 9 11 13 14 14 14 15 16
14 14 12 12 14 13 12 12 12 13 13 12 10 10 10 9 8 8 8 8 8 8 8 8 8 7 7 7 6 7 7 6 5 5 7 6 7 6 6 4 4 3 3 1 2 3 3 3 3 4 3 3 3 4 4 5 5 6 6 7 7 7 7 7 7 6 5 5 6 6 6 6 6 6 5 5 6 5 9 11 13 14 14 15 16
14 13 14 14 13 13 14 14 15 15 13 11 10 8 9 9 9 9 9 8 8 8 8 8 8 8 7 7 7 7 7 6 6 6 7 7 7 7 6 5 4 4 3 2 3 3 3 4 3 2 2 2 3 4 5 5 6 6 7 7 7 7 8 7 7 6 4 4 6 6 6 6 6 6 5 5 5 5 6 9 11 13 13 13 16
13 14 14 16 16 14 13 13 12 12 12 12 11 10 9 9 8 8 8 8 8 8 8 8 8 8 8 8 8 8 7 7 6 6 6 6 6 7 6 6 5 4 4 3 2 3 5 4 2 0 1 1 2 4 6 6 6 7 8 8 8 7 8 8 6 4 4 6 6 6 6 6 6 6 5 4 4 5 4 7 9 9 8 9 15
12 13 13 12 11 12 11 12 13 12 11 11 10 9 8 6 6 7 7 7 6 7 8 8 8 8 8 8 8 8 8 7 7 7 7 7 7 6 6 5 5 5 4 4 3 4 3 3 2 0 0 1 3 3 4 5 6 7 8 9 8 9 8 8 5 4 5 4 5 6 5 6 5 4 4 4 4 4 4 4 4 4 5 8 12
11 12 13 13 13 12 10 10 12 12 10 10 9 9 8 9 9 6 6 7 7 7 7 8 8 8 8 9 8 8 8 8 7 7 7 7 7 7 6 5 5 5 5 5 5 4 3 2 1 0 0 0 1 3 3 5 6 6 8 8 7 9 9 8 4 3 4 3 4 5 5 5 4 4 4 4 5 4 4 4 4 4 4 6 10
11 13 14 14 15 16 14 15 13 13 13 12 12 12 12 8 7 10 11 9 9 8 8 7 8 7 9 9 9 8 8 8 7 7 7 7 7 7 6 5 5 6 6 6 6 5 3 3 2 1 1 2 2 2 5 6 6 5 4 6 6 6 9 5 2 3 1 3 5 6 7 6 5 3 3 3 3 5 5 5 5 6 6 4 5
10 13 16 15 14 14 16 15 12 13 14 15 13 12 12 13 13 12 10 10 9 10 10 8 9 7 9 9 8 8 8 8 7 7 7 7 7 7 6 7 6 6 5 5 4 4 4 3 3 2 2 2 1 2 4 6 5 7 10 10 2 3 5 0 1 1 7 8 7 5 5 3 4 3 4 6 6 5 5 6 6 6 5 5 5
15 16 14 14 14 14 14 14 13 14 13 13 12 12 8 7 8 7 9 7 3 4 5 5 6 8 8 9 8 8 9 7 8 7 7 7 7 7 7 7 6 6 6 5 5 4 4 3 3 3 1 2 1 1 2 5 2 5 5 4 7 9 3 4 2 8 8 7 4 3 3 3 4 4 4 4 4 4 5 5 5 5 5 6 6
11 10 13 16 14 14 13 14 14 13 12 12 11 9 9 6 4 6 5 5 6 6 5 6 6 8 8 8 8 9 9 9 8 8 7 7 8 8 6 6 7 6 6 6 5 4 4 3 4 3 2 2 2 1 2 3 2 5 6 1 4 3 10 1 8 5 3 5 2 8 5 6 5 6 5 5 5 4 5 5 6 6 6 7 6
13 15 15 15 13 16 16 15 14 14 12 12 12 10 8 7 6 6 5 5 4 5 6 6 8 8 8 8 10 10 10 9 8 8 8 8 7 7 7 7 6 6 6 6 6 5 5 4 5 3 2 1 1 0 1 3 4 1 1 2 3 3 2 5 12 14 1 5 4 5 6 4 5 5 4 5 5 5 6 6 6 5 6 5 5
14 15 15 16 14 13 13 13 11 11 12 13 13 11 11 11 10 10 10 8 8 10 13 14 12 13 14 9 7 8 9 8 8 8 8 7 7 7 6 6 6 6 6 6 5 5 4 5 4 4 3 3 2 1 2 1 0 3 2 3 3 4 5 5 5 8 6 12 10 6 3 3 3 5 5 6 6 6 5 6 5 6 6 6 6
15 12 12 13 13 13 14 14 13 11 11 12 13 11 11 11 15 15 14 14 14 11 9 8 10 8 6 10 9 8 9 9 8 8 7 7 7 6 6 6 5 5 4 5 5 5 5 4 3 4 4 3 3 1 3 3 3 2 1 2 3 3 2 1 4 5 12 2 3 8 7 6 5 6 8 5 5 7 7 6 6 6 6 6 6
13 11 12 12 14 15 14 14 11 11 11 12 14 14 14 13 13 13 12 12 12 12 12 11 9 8 9 9 8 8 8 8 8 7 7 7 7 7 6 5 6 5 5 6 5 4 5 3 3 3 3 4 4 3 2 0 1 3 0 4 4 3 3 3 3 4 7 13 6 3 4 9 8 6 5 9 10 8 6 6 8 7 6 6 6
10 13 14 14 13 12 13 12 12 12 12 15 15 15 14 14 14 12 11 9 9 8 7 7 8 8 10 8 8 8 7 7 7 7 7 7 6 6 6 6 6 5 5 5 4 5 5 4 3 4 3 3 3 3 2 2 2 4 4 3 2 2 3 3 4 2 4 6 14 1 6 2 3 8 12 9 6 7 8 8 7 7 7 7 6
9 8 8 8 10 10 12 14 14 13 13 15 16 16 15 13 13 13 14 11 8 7 8 10 9 9 11 10 9 9 8 7 7 7 7 6 6 6 6 6 6 5 5 5 4 5 4 4 4 3 3 3 3 3 3 3 3 3 3 4 3 3 3 2 1 1 3 6 11 12 9 14 13 4 7 11 10 7 7 8 9 8 7 6 6
7 8 9 10 10 11 13 15 16 13 14 16 17 17 15 14 14 15 15 14 12 11 11 10 10 10 11 11 10 9 8 9 7 7 7 7 6 6 6 6 6 5 5 5 5 5 5 4 4 3 3 4 3 3 1 1 3 3 4 5 5 5 5 4 5 4 2 5 9 13 11 8 11 17 5 7 5 8 10 8 9 7 6 7 6
Wind_Direction
261 107 300 57 81 87 88 79 79 80 76 78 77 80 85 87 85 79 76 80 82 84 80 80 79 78 78 79 79 82 83 82 82 80 77 72 70 67 64 59 53 53 58 52 50 60 57 60 58 54 50 47 49 46 37 35 34 34 32 30 30 28 25 22 20 15 2 348 337 335 329 324 329 335 344 333 354 32 58 51 36 19 17 7 56
170 167 331 62 89 94 92 89 88 83 76 78 78 79 83 86 89 89 90 88 87 85 85 85 83 83 81 83 82 80 81 81 80 79 76 72 67 65 63 58 54 50 55 57 52 44 65 75 72 67 61 53 49 45 43 35 31 31 33 32 31 29 24 20 17 11 4 346 333 328 326 327 330 331 339 11 6 27 60 32 29 33 347 12 34
138 104 14 57 91 93 95 94 86 89 88 80 78 79 84 88 87 84 87 86 84 85 88 88 87 83 81 80 79 73 76 76 82 80 78 72 66 63 58 58 55 58 53 58 57 64 50 52 68 60 58 56 53 46 41 38 34 28 24 26 27 27 28 23 17 8 358 347 332 329 330 335 324 325 73 86 70 47 52 25 19 16 321 341 348
120 130 68 32 80 100 100 101 98 99 108 90 85 90 91 90 91 91 89 86 82 83 85 88 85 84 84 81 82 85 80 77 76 76 73 71 67 61 59 56 58 58 59 56 63 63 70 68 66 65 58 52 52 52 47 43 40 35 28 24 24 25 25 22 14 7 355 340 327 328 339 335 319 304 122 93 76 68 51 39 23 339 351 345 341
128 136 97 61 39 105 111 105 106 106 102 100 92 94 95 96 94 93 89 87 87 84 81 80 81 77 78 77 77 75 74 75 72 71 72 69 66 63 60 61 58 54 59 64 61 59 58 65 63 61 56 49 46 44 43 42 41 41 35 27 24 22 19 12 5 357 348 339 327 331 337 325 295 219 122 103 91 74 60 28 353 357 339 331 346
131 131 109 82 68 111 116 117 114 110 109 114 110 105 98 99 99 96 96 94 94 92 90 84 82 80 80 81 84 82 79 75 76 73 69 68 65 61 58 56 56 54 50 53 53 54 56 59 61 59 53 49 45 42 41 38 38 39 38 29 26 16 11 6 359 350 342 340 342 337 331 332 330 264 127 118 106 94 80 14 6 1 352 349 356
126 128 114 103 89 118 114 118 119 117 116 114 110 109 102 100 104 105 106 100 92 89 89 89 85 84 80 79 77 75 75 76 75 72 71 69 68 64 62 60 58 53 52 50 53 51 49 54 57 59 56 51 48 44 41 38 34 32 32 28 23 16 9 3 355 345 339 343 343 332 326 328 312 354 332 80 92 101 85 53 27 14 12 18 11
117 122 118 118 133 118 119 119 118 122 123 119 118 113 113 107 105 98 96 99 95 87 88 84 82 81 80 77 75 73 72 73 73 71 68 65 63 62 60 57 56 55 55 53 54 53 52 52 52 52 52 49 45 43 40 40 37 34 30 26 24 18 10 4 356 346 340 345 338 335 333 314 8 358 356 49 67 98 85 63 34 13 359 358 354
120 120 118 127 128 122 121 122 121 121 121 120 118 116 113 108 97 93 95 91 93 92 89 87 83 82 79 76 75 74 73 71 68 66 64 62 59 57 55 53 51 50 49 50 51 52 52 50 48 47 45 42 38 35 33 32 35 34 30 26 20 14 7 0 355 350 342 342 337 336 332 338 349 356 328 332 314 44 78 69 38 7 355 350 333
121 117 120 125 138 131 127 123 125 125 122 118 114 112 109 101 100 99 98 100 102 100 94 91 87 82 77 74 74 74 72 68 66 63 61 60 59 57 55 53 51 48 45 45 47 48 48 47 43 42 40 38 32 26 23 18 19 22 23 22 18 14 6 357 351 346 341 332 334 333 330 329 340 353 325 334 16 4 79 75 66 3 329 317 307
127 126 124 133 147 124 124 125 125 120 113 110 106 103 101 102 102 99 99 104 104 102 101 97 89 80 77 76 75 73 72 70 68 64 62 60 59 57 56 55 54 51 47 44 44 44 43 42 40 36 34 31 27 23 19 14 12 13 12 12 11 8 6 355 348 335 332 329 329 326 320 323 331 322 291 310 307 320 73 48 360 319 329 341 340
129 129 124 130 126 125 124 125 124 121 118 113 110 109 107 108 107 106 103 102 100 98 96 92 88 86 83 81 78 76 73 72 69 66 63 60 58 56 54 54 52 52 50 47 45 45 44 41 37 34 31 28 24 21 18 15 15 13 9 4 3 1 1 353 344 331 321 324 323 315 314 318 316 301 309 311 318 343 86 346 352 350 348 344 343
134 131 124 107 107 125 130 128 126 125 124 124 121 117 115 112 110 109 107 108 106 104 101 97 93 91 87 85 82 79 77 75 73 69 65 62 59 56 54 52 51 50 48 46 43 43 43 41 38 34 30 26 22 20 19 19 18 14 9 4 359 356 355 352 343 328 318 313 311 310 314 313 314 303 301 311 324 338 330 345 345 348 345 343 341
139 137 132 120 112 121 125 130 131 132 132 131 129 125 123 119 116 113 111 109 107 105 102 101 99 95 93 90 87 83 81 79 77 74 71 68 65 61 57 54 52 51 50 48 45 42 40 39 36 33 30 26 23 23 24 23 19 14 8 3 358 355 351 348 341 332 319 313 309 311 312 307 300 305 313 311 290 293 328 9 349 342 343 343 341
141 143 141 129 118 122 132 135 137 137 136 134 131 130 127 124 121 118 115 114 111 108 106 103 101 99 96 94 89 86 83 81 78 76 74 71 69 67 63 59 56 53 51 49 46 44 42 39 36 33 30 28 28 31 27 24 20 13 7 2 357 353 350 341 339 332 323 315 306 306 304 316 311 315 316 303 300 300 332 345 341 340 339 338 336
142 146 140 136 131 122 120 132 133 135 135 132 129 128 127 126 124 121 119 117 114 111 108 106 104 101 98 95 93 90 87 84 81 77 73 69 66 64 61 59 56 53 49 46 43 42 40 37 35 34 32 29 30 30 26 22 19 15 9 5 0 355 350 348 340 336 324 315 311 313 320 332 339 355 355 354 348 332 328 330 331 336 335 336 333
143 145 142 147 141 134 130 118 125 122 117 121 125 126 127 128 126 123 120 118 116 114 113 110 106 103 100 97 93 90 86 81 77 73 68 63 58 56 53 51 49 47 43 39 37 36 33 32 31 30 30 28 28 26 24 20 18 14 9 6 3 2 0 5 354 345 336 328 335 342 343 343 349 350 351 347 342 335 333 329 328 332 331 327 323
147 149 153 155 152 151 146 141 121 117 117 121 127 130 131 130 127 124 121 119 118 116 115 112 108 104 100 98 93 86 80 75 69 63 60 55 49 47 46 44 44 43 40 37 34 34 32 30 28 31 28 27 26 25 22 20 18 16 11 6 5 7 5 8 3 348 348 347 346 343 352 340 351 347 346 350 352 353 354 351 343 338 333 326 322
152 157 157 157 162 158 159 150 141 129 121 121 121 128 132 132 129 127 125 124 121 118 115 114 113 108 100 92 88 82 74 68 64 59 56 53 49 45 48 45 44 46 45 42 38 40 38 36 34 35 32 28 24 21 18 17 16 14 10 7 7 7 5 5 358 351 349 351 349 351 343 344 347 344 340 339 338 338 339 337 337 336 333 330 327
162 163 163 168 163 162 166 161 153 145 137 132 127 127 133 134 134 132 131 127 122 119 116 111 109 107 101 93 87 77 69 69 74 66 66 65 60 61 61 53 52 56 48 44 43 43 41 38 36 34 31 29 24 20 16 15 14 11 8 4 6 5 360 356 355 354 350 347 348 348 337 347 346 344 342 339 337 336 333 332 331 330 329 327 323
180 181 173 170 168 166 171 164 162 153 147 140 134 131 137 137 135 135 133 130 124 119 117 115 111 112 108 112 91 85 84 84 93 111 101 102 98 48 71 61 59 58 49 45 42 42 39 37 35 30 27 23 16 11 5 5 7 6 2 1 4 1 353 353 352 347 350 346 347 341 343 346 344 341 340 338 335 333 331 329 327 325 322 319 318
186 187 189 173 170 175 173 171 160 157 152 146 147 147 144 136 140 132 129 128 125 120 118 121 120 127 139 121 123 122 119 126 135 137 146 129 115 73 71 67 63 60 50 44 43 40 36 34 33 29 24 18 12 7 359 355 354 355 355 357 360 355 352 352 350 344 343 341 345 337 343 341 339 337 334 331 329 327 325 323 323 321 319 314 310
197 191 193 183 176 173 173 168 160 158 152 152 153 157 154 154 152 150 147 139 135 125 132 134 125 119 127 135 137 135 140 143 152 167 145 126 81 75 76 69 64 60 52 45 40 38 33 31 30 26 21 15 12 5 1 357 352 352 353 353 352 346 346 350 345 342 334 332 338 333 339 337 336 334 331 329 329 329 327 325 323 322 319 317 313
194 190 183 179 174 174 177 168 160 159 154 158 157 163 167 164 163 162 158 152 143 137 135 139 133 122 131 129 128 133 134 135 116 113 97 78 72 68 69 67 57 54 56 44 33 28 27 22 23 25 19 14 9 4 1 355 356 352 352 355 351 344 346 344 341 331 326 323 324 322 331 331 331 331 327 327 328 328 326 324 323 322 319 317 315
189 172 172 187 182 176 171 172 164 162 158 162 163 170 173 165 166 166 160 150 143 139 146 149 135 128 133 136 134 127 120 116 104 99 95 90 83 84 72 73 66 53 57 50 39 25 23 18 17 21 20 13 8 360 357 354 354 351 351 349 348 344 342 343 339 332 325 323 316 314 323 327 327 324 325 325 325 324 323 323 323 322 320 318 316
158 180 192 187 186 180 173 171 167 168 166 168 170 170 166 169 170 172 165 163 152 153 154 150 135 131 140 151 124 123 120 111 106 106 99 102 97 98 88 87 70 67 63 60 45 32 20 19 17 20 13 14 8 356 350 349 346 344 343 344 341 337 338 337 336 331 326 325 320 319 322 325 324 323 323 323 322 320 320 322 322 321 320 319 319
184 196 187 187 182 182 173 169 172 170 172 172 169 168 172 173 171 172 166 168 162 153 154 149 143 143 142 147 133 132 130 124 113 114 117 114 105 104 92 92 82 70 64 69 49 33 28 17 14 15 9 8 358 351 343 339 339 337 335 334 335 329 331 330 327 325 321 322 319 320 322 322 324 323 324 324 322 322 323 323 321 320 321 321 321
185 189 187 184 182 185 174 171 174 171 173 175 173 172 172 168 170 164 164 166 156 155 154 153 140 134 144 142 138 137 136 128 129 122 137 113 109 104 94 88 78 66 69 68 55 30 18 13 10 6 11 3 352 342 340 335 335 336 335 331 327 322 316 310 303 300 303 302 307 313 314 318 322 322 322 322 323 324 324 323 323 322 321 322 322
194 191 184 183 186 180 173 176 173 175 175 172 173 172 164 164 164 161 165 167 155 156 155 145 140 141 125 126 137 134 131 132 134 141 128 114 103 97 90 93 82 71 72 62 71 42 16 5 9 13 12 1 350 339 337 332 333 335 340 330 325 321 318 312 306 303 299 298 301 302 310 316 320 321 321 323 324 324 324 323 322 323 325 326 326
197 183 180 189 180 176 177 178 176 175 174 170 171 168 167 165 168 164 167 161 159 157 149 144 147 140 137 124 134 134 138 137 137 139 120 121 110 103 94 95 92 85 80 78 86 94 34 12 20 23 16 2 354 336 339 331 333 333 334 326 321 319 316 315 316 317 314 314 309 309 314 316 318 321 322 321 322 325 325 326 327 327 326 326 326
180 187 186 183 178 174 181 177 175 173 168 174 172 171 164 168 167 162 162 160 158 152 146 146 144 145 146 132 126 129 134 132 132 132 122 126 119 114 108 105 88 90 102 89 47 70 58 55 43 33 19 3 346 338 340 331 329 329 324 324 315 316 314 312 311 311 314 314 314 313 312 313 313 314 316 318 322 325 327 329 330 330 328 327 326
186 191 186 172 173 181 177 176 174 173 170 175 173 170 171 168 165 161 163 158 155 150 143 145 149 149 148 138 133 134 134 136 137 131 131 129 130 125 118 104 111 99 97 97 62 55 61 45 54 51 27 15 348 340 332 333 323 316 317 314 313 314 308 307 304 307 306 310 314 314 311 309 309 307 309 312 318 323 325 328 329 331 330 329 329
199 184 173 171 180 177 175 177 172 174 175 175 177 174 168 164 162 169 161 158 156 146 145 151 151 151 149 145 140 140 141 145 147 139 136 138 138 124 112 119 122 107 87 103 79 49 49 50 40 37 25 20 6 335 328 318 313 309 310 302 308 303 297 297 298 300 302 305 307 304 300 299 297 300 299 301 307 314 319 323 327 327 328 330 331
184 177 165 181 178 173 173 171 174 176 179 172 170 169 171 164 162 161 160 158 158 152 151 149 150 150 151 153 144 144 146 151 146 141 137 140 137 125 127 126 134 112 103 92 72 71 66 60 37 39 19 19 353 329 324 319 305 300 298 293 293 286 289 289 285 287 292 296 296 293 293 291 290 289 289 292 297 301 306 314 319 321 325 330 332
164 176 183 180 171 173 171 174 174 175 174 174 171 172 170 163 163 161 165 162 159 154 153 151 151 154 152 155 147 146 147 151 152 143 145 139 135 127 127 146 137 121 98 121 115 74 80 55 46 42 24 3 334 312 311 300 304 305 300 293 286 287 282 279 284 291 297 300 295 287 282 280 280 283 285 288 293 293 292 297 305 313 320 327 329
183 184 178 167 175 173 173 169 172 172 177 174 170 168 169 166 164 162 161 164 160 158 159 158 154 154 155 156 150 148 147 149 153 146 141 141 135 137 148 147 142 127 133 121 106 89 76 58 44 75 26 335 331 311 309 302 296 294 290 289 283 284 284 285 287 292 293 295 285 282 278 274 273 273 273 274 275 278 281 286 292 302 313 321 325
184 173 175 175 173 172 173 167 173 172 171 168 162 162 164 164 165 167 166 163 163 160 159 154 155 157 162 160 155 151 151 153 157 152 143 143 139 141 156 151 150 145 140 128 100 113 93 89 57 61 73 311 313 307 307 303 302 294 291 288 287 285 284 283 283 287 295 277 280 276 277 271 267 265 269 271 271 275 287 285 287 294 302 310 320
181 177 176 174 174 173 173 169 169 168 167 166 165 163 165 158 161 165 166 168 168 163 159 157 161 162 162 163 159 154 156 159 161 154 147 151 147 146 155 152 147 140 138 121 124 97 104 111 105 156 66 309 300 302 303 305 303 300 297 291 289 282 279 279 280 288 278 286 284 280 271 274 273 270 270 280 285 297 296 297 299 303 310 311 320
179 175 171 171 163 167 165 168 166 168 166 163 159 156 154 149 151 159 165 168 169 170 163 162 165 163 166 163 158 157 160 164 164 159 153 153 151 151 148 159 146 145 137 134 112 109 108 116 122 180 254 251 253 270 283 296 303 295 291 286 282 281 275 271 281 279 281 274 282 282 293 280 281 292 299 298 301 299 299 295 292 293 299 315 318
172 168 167 166 165 164 164 165 171 165 160 158 156 158 159 163 163 161 167 179 175 170 175 169 162 166 166 164 163 161 164 166 167 162 158 158 155 156 154 158 158 149 149 141 143 138 142 120 116 127 345 290 258 276 307 316 297 289 281 277 270 277 275 271 277 265 298 307 288 276 276 278 284 291 300 309 313 312 317 311 307 307 319 320 313
167 167 166 171 169 169 166 175 176 169 165 166 172 168 170 164 167 180 179 178 176 171 173 170 169 167 166 165 164 163 164 167 169 163 165 159 155 154 155 167 167 161 161 159 160 155 151 146 133 106 40 17 347 6 329 324 324 307 241 255 278 257 266 266 258 317 30 299 278 296 286 289 297 307 301 322 337 342 334 320 314 317 315 316 308
181 170 174 174 171 170 176 175 175 177 178 177 175 178 178 178 173 181 175 176 167 171 175 183 175 161 165 166 164 165 166 169 170 167 166 161 156 159 165 172 168 169 164 160 144 141 129 110 118 47 35 40 345 3 325 357 14 359 332 331 258 294 260 334 67 79 350 319 306 297 298 300 310 314 338 352 336 327 318 311 309 311 314 311 306
172 176 172 167 174 177 182 176 180 180 184 179 174 180 175 173 174 169 170 167 180 165 161 158 150 158 169 167 163 166 167 171 172 171 168 168 164 162 172 171 171 164 149 139 136 128 131 118 102 118 35 11 354 304 24 62 333 318 283 326 336 1 337 7 354 344 305 294 287 289 297 311 301 314 318 325 324 322 312 306 306 308 306 304 303
167 172 174 177 179 184 183 180 183 184 180 182 178 173 167 152 128 136 140 147 167 156 143 142 150 151 169 173 171 169 170 172 174 171 171 169 167 170 170 172 176 167 156 146 138 136 122 108 108 107 102 26 27 314 48 46 47 353 4 40 291 4 329 202 312 277 266 282 17 328 326 315 317 321 331 326 314 306 296 296 295 295 292 293 292
177 179 179 181 185 186 184 183 181 184 181 177 175 160 144 134 120 112 112 94 88 140 146 166 174 171 162 182 184 173 172 172 173 173 170 171 170 170 172 176 166 163 148 142 145 155 152 146 133 119 130 156 238 262 319 58 357 350 178 2 346 6 213 294 337 307 11 306 313 310 324 328 324 320 321 302 298 294 296 294 290 288 288 287 293
183 187 183 184 181 183 182 183 182 182 182 178 171 165 168 163 155 157 170 174 174 175 187 183 179 183 189 178 165 173 169 170 175 173 171 168 172 174 173 167 165 158 150 150 149 136 137 132 150 137 142 166 176 229 277 347 43 317 262 187 193 222 305 314 351 298 343 300 297 318 324 319 321 319 307 301 295 294 286 283 281 282 281 282 282
193 180 182 184 182 180 183 183 183 182 177 175 172 170 174 179 181 182 181 183 182 198 189 183 182 180 155 172 177 175 174 170 178 174 173 173 171 172 171 169 164 159 151 139 148 154 148 147 133 122 150 150 131 231 271 285 9 296 277 269 276 265 210 298 259 308 314 341 14 329 327 327 312 299 297 284 289 294 286 283 286 285 279 274 276
181 175 180 184 184 183 182 183 181 180 178 174 180 181 181 184 186 189 188 191 191 186 182 183 177 165 168 175 168 177 174 175 172 176 173 172 169 171 169 164 161 163 150 155 156 154 132 124 127 132 130 148 162 190 226 195 283 277 351 297 292 292 288 262 236 238 272 297 289 285 267 291 307 304 288 296 292 280 286 288 289 286 282 276 271
178 182 186 186 184 178 178 178 183 181 181 180 183 188 187 186 187 184 190 198 187 180 171 165 168 168 170 170 171 172 173 175 175 173 175 171 171 170 166 163 162 166 155 152 155 146 146 139 128 128 149 158 168 184 154 180 185 251 303 287 276 262 294 271 274 258 276 299 295 288 305 211 247 283 289 282 281 291 287 284 281 283 287 288 280
186 188 183 176 179 173 179 180 188 186 183 184 187 189 189 183 187 190 189 186 176 162 167 171 173 171 176 176 175 174 175 172 176 174 170 174 169 166 166 167 168 166 158 160 153 141 135 136 145 153 160 175 188 174 177 198 205 234 224 247 284 309 316 303 257 338 266 227 273 305 311 314 308 264 284 287 280 266 275 290 287 283 282 278 278
185 181 183 181 179 180 182 188 192 187 186 189 187 191 189 189 192 190 189 185 180 171 172 181 176 176 180 178 177 177 174 177 168 174 172 170 172 171 169 170 167 165 156 156 163 152 146 143 150 160 181 183 187 163 183 194 207 227 236 222 240 242 241 262 283 291 275 294 308 298 307 295 293 304 248 237 264 277 283 275 279 282 279 280 277